User: anonymous   Login
Location: Caltech
(34.1382°N, 118.1253°W)
Time: 10:32:09
(UTC-08:00)
Language:

OAO 2 Rocket - Orbit

View from above orbital plane
View from above orbital plane
View from above satellite
View from above satellite

Ground track
Ground track

The orbit data is extracted from the following two-line orbital elements,

1 03598U 68110B   15029.56156758  .00000445  00000-0  10767-3 0  8212
2 03598 034.9924 206.7790 0049184 014.6329 048.7121 14.53896020439827
Epoch (UTC): 29 January 2015 13:28:39
Eccentricity: 0.0049184
inclination: 34.9924°
perigee height: 678 km
apogee height: 748 km
right ascension of ascending node: 206.7790°
argument of perigee: 14.6329°
revolutions per day: 14.53896020
mean anomaly at epoch: 48.7121°
orbit number at epoch: 43982

The dashed part of the orbit path shows where the satellite is in the earth's shadow,  

DLR